Regional Weather Roundup
Issued by NWS Albany, NY

Home | Current Version | Previous Version | Text Only | Print | Product List | Glossary On
Versions: 1 2 3 4 5 6 7 8 9 10 11 12 13 14 15 16 17 18 19 20 21 22 23 24 25 26 27
000
ASUS41 KALY 250610
RWRALY

NEW YORK STATE HOURLY WEATHER ROUNDUP
NATIONAL WEATHER SERVICE ALBANY NY
100 AM EST SAT NOV 25 2017

NOTE: "FAIR" INDICATES FEW OR NO CLOUDS BELOW 12,000 FEET WITH NO
SIGNIFICANT WEATHER AND/OR NO OBSTRUCTIONS TO VISIBILITY.

NYZ032-033-038>043-046>054-057>066-NYZ062>081-082-084-250700-
EAST


CITY           SKY/WX    TMP DP  RH WIND       PRES   REMARKS
ALBANY         MOCLDY    41  22  46 S10       29.82F
GLENS FALLS    PTCLDY    36  25  64 VRB3      29.79F HAZE
POUGHKEEPSIE   CLEAR     26  22  84 CALM      29.88F
NEWBURGH       CLEAR     36  27  69 CALM      29.89F
MONTGOMERY     PTCLDY    26  22  84 CALM      29.87F
WHITE PLAINS   CLEAR     40  27  59 CALM      29.90F
ISLIP          CLEAR     37  34  89 CALM      29.91F
NEW YORK CITY  CLEAR     44  28  53 SW8       29.92F
CENTRAL PARK   CLEAR     43  29  57 VRB3      29.94F
$$

NYZ005>009-017-018-044>046-055-056-250700-
CENTRAL


CITY           SKY/WX    TMP DP  RH WIND       PRES   REMARKS
FULTON         PTCLDY    44  24  45 SE6       29.66F
SYRACUSE       PTCLDY    44  22  41 S9        29.68F
ROME           CLEAR     41  22  46 E7        29.75F
ELMIRA         PTCLDY    41  25  53 SW8       29.73F
BINGHAMTON     PTCLDY    39  21  48 S14       29.74F WCI  31
MONTICELLO     CLEAR     31  21  66 CALM      29.85F
$$

NYZ026>034-041>043-087-250700-
NORTH


CITY           SKY/WX    TMP DP  RH WIND       PRES   REMARKS
WATERTOWN      MOCLDY    47  25  42 S14G22    29.62F
FORT DRUM      NOT AVBL
OGDENSBURG     FAIR      45  28  51 S12G21    29.59F
MASSENA        PTCLDY    48  29  47 S15G23    29.60F
SARANAC LAKE   CLEAR     40  25  55 SW14      29.63F WCI  32
PLATTSBURGH    CLEAR     41  27  57 S10       29.65F
$$

NYZ001>004-010>016-019>021-085-250700-
WEST


CITY           SKY/WX    TMP DP  RH WIND       PRES   REMARKS
NIAGARA FALLS  MOCLDY    50  27  40 S15       29.58F
BUFFALO        MOCLDY    49  24  37 S18       29.59F
DUNKIRK        CLOUDY    50  24  36 S20G33    29.60F
JAMESTOWN      PTCLDY    46  21  37 S18G24    29.65F
WELLSVILLE     PTCLDY    49  18  29 S8        29.70F
ROCHESTER      MOCLDY    51  25  36 SW13      29.61F
PENN YAN       CLOUDY    47  22  37 S14G22    29.67F
$$

             KEY
       WCI = WIND CHILL INDEX
       VSB = VISIBILITY
       HX  = HEAT INDEX
$$




USA.gov is the U.S. government's official web portal to all federal, state and local government web resources and services.